CZ-6A DEB, 54926

Orbit data source: Space-Track

CZ-6A DEB, 54926 is space debris in SSO originally from a launch on Fri, 11 Nov 2022 UTC launched from the Taiyaun Space Center, China (TSC). Debris objects in space refer to the collection of defunct objects orbiting the Earth. Examples of debris include non-operational satellites, rocket bodies, and fragments generated from explosions, collisions, or faulty payload assembly.

Loading next visibility...
Identifier
54926, 2022-151RP
Orbit
SSO
Country
Flag of CNCN / PRC
Related business
Manufacturer
SAST
Mission
Spacecraft
Bus & Motor
Unknown
Mass
Unknown
Launch date (UTC)
2022-11-11 (4 years ago)
Launch vehicle
Unknown
Launch site
Taiyaun Space Center, China (TSC)
Object type
Payload
Rocket body
Debris
Shape & HBR
Unknown shape, 0.1 m
Radar Cross Section
Medium (>0.1 m² and <1 m²)

Expand to show TLE details & history
Last TLE update: 2 days ago

TLE from 2 days ago
0 CZ-6A DEB
1 54926U 22151RP  26171.41850677  .00000749  00000-0  45537-3 0  9999
2 54926  98.8420 160.9804 0062874 344.5125  15.4120 14.08295958184487
Epoch: 2026-06-20T10:02Z
TLE epoch observation values (Epoch: 2026-06-20T10:02:38.984Z)
Latitude
Longitude
101.68455°
Altitude
824.211 km
Speed
7.463 km/s
True Right ascension
10h 43m 55s
True Declination
0° 00' 00"
Sunlit
Object was in daylight at epoch
Visualization orbit readout
Latitude
Unknown
Longitude
Unknown
Altitude
Unknown
Speed
Unknown
Apparent Right ascension
Unknown
Apparent Declination
Unknown
Sunlit
N/A
Visualization observer readout
Local Sidereal Time
21:39:48
Azimuth
Unknown
Elevation
Unknown
Doppler factor
Unknown
Orbital elements
Apogee altitude
907.913 km
Perigee altitude
816.865 km
Semi-major axis
7,240.526 km
Eccentricity
0.00629
Inclination
98.842°
RAAN
160.9804°
Arg. of periapsis
344.5125°
True anomaly
15.60494°
Mean anomaly
15.412°
Eccentric anomaly
15.50832°
Mean motion
3.5228 °/min
Orbital period
102.19 mins
BSTAR
0.00045537
Loading maneuver chart data...
Computing Atmospheric mass density...
Loading historical data...
Loading historical data...
Loading historical data...
Loading historical data...
Loading historical data...
Loading historical data...
Loading historical data...

Documentation

Showing up to 5 results
|